Location: Taupo
(38.6830°S, 176.0830°E)
Time: 18:16:37
(UTC+13:00)

ADEOS Rocket - Pass Details

Date: 24 January 2019
Orbit: 859 x 1306 km, 98.7° (Epoch: 15 February)

Event Time Altitude Azimuth Distance (km) Brightness Sun altitude
Exits shadow 21:18:53 - 53° (NE) 2,613 4.6 -7.9°
Reaches altitude 10° 21:19:03 10° 54° (NE) 2,557 4.5 -7.9°
Maximum altitude 21:23:51 30° 113° (ESE) 1,514 3.8 -8.7°
Drops below altitude 10° 21:28:36 10° 172° (S) 2,528 5.5 -9.5°
Sets 21:31:15 0° 182° (S) 3,484 6.5 -9.9°
